Weather History for HESH - February, 2014

Change the Weather History Date:

Friday, February 28, 2014

  Actual Average Record
Temperature  
Mean Temperature 70 °F -  
Max Temperature 80 °F - - ()
Min Temperature 59 °F - - ()
Cooling Degree Days 4    
Growing Degree Days 20 (Base 50)    
Moisture  
Dew Point 43 °F    
Average Humidity 40    
Maximum Humidity 60    
Minimum Humidity 28    
Precipitation  
Precipitation 0.00 in - - ()
Sea Level Pressure  
Sea Level Pressure 29.99 in    
Wind  
Wind Speed 10 mph ()    
Max Wind Speed 15 mph    
Max Gust Speed -    
T = Trace of Precipitation, MM = Missing Value Source: Averaged Metar Reports

Daily Weather History Graph

Daily Weather History Graph

Search for Another Location

Airport or City:

Trip Planner

Search our weather history database for the weather conditions in past years. The results will help you decide how hot, cold, wet, or windy it might be!

Date:

Astronomy

Feb. 28, 2014 Rise Set
Actual Time 6:08 AM EET 5:41 PM EET
Civil Twilight 5:44 AM EET 6:05 PM EET
Nautical Twilight 5:17 AM EET 6:32 PM EET
Astronomical Twilight 4:50 AM EET 7:00 PM EET
Moon 5:05 AM EET (2/28) 4:54 PM EET (2/28)
Length of Visible Light 12h 20m
Length of Day
11h 33m
Waning Crescent, 1% of the Moon is Illuminated
Feb 28
Waning Crescent
Mar 1
New
Mar 8
First Quarter
Mar 16
Full
Mar 24
Last Quarter

Hourly Weather History & Observations

Time (EET) Temp. Dew Point Humidity Pressure Visibility Wind Dir Wind Speed Gust Speed Precip Events Conditions
12:00 AM 64.4 °F 37.4 °F 37% 30.04 in - North 11.5 mph - N/A   Clear
1:00 AM 64.4 °F 41.0 °F 42% 30.01 in - North 13.8 mph - N/A   Clear
2:00 AM 62.6 °F 41.0 °F 45% 30.01 in - North 15.0 mph - N/A   Clear
3:00 AM 62.6 °F 41.0 °F 45% 30.01 in - North 13.8 mph - N/A   Clear
4:00 AM 60.8 °F 41.0 °F 48% 30.01 in - North 12.7 mph - N/A   Clear
5:00 AM 60.8 °F 41.0 °F 48% 30.01 in - North 13.8 mph - N/A   Clear
6:00 AM 59.0 °F 41.0 °F 51% 30.01 in - North 11.5 mph - N/A   Clear
7:00 AM 60.8 °F 39.2 °F 45% 30.04 in - North 9.2 mph - N/A   Clear
8:00 AM 66.2 °F 41.0 °F 40% 30.04 in - North 12.7 mph - N/A   Clear
9:00 AM 68.0 °F 39.2 °F 35% 30.04 in - NNE 15.0 mph - N/A   Clear
10:00 AM 71.6 °F 41.0 °F 33% 30.04 in - NNE 12.7 mph - N/A   Clear
11:00 AM 75.2 °F 42.8 °F 31% 30.04 in - NNE 10.4 mph - N/A   Clear
12:00 PM 75.2 °F 42.8 °F 31% 30.01 in - NNE 11.5 mph - N/A   Clear
1:00 PM 78.8 °F 44.6 °F 30% 29.98 in - NNE 11.5 mph - N/A   Clear
2:00 PM 80.6 °F 44.6 °F 28% 29.95 in - NE 10.4 mph - N/A   Clear
3:00 PM 78.8 °F 42.8 °F 28% 29.95 in - NNE 11.5 mph - N/A   Clear
4:00 PM 77.0 °F 44.6 °F 32% 29.95 in - NNE 11.5 mph - N/A   Clear
5:00 PM 75.2 °F 44.6 °F 34% 29.92 in - North 13.8 mph - N/A   Clear
6:00 PM 69.8 °F 44.6 °F 40% 29.95 in - North 8.1 mph - N/A   Clear
7:00 PM 68.0 °F 37.4 °F 33% 29.95 in - North 4.6 mph - N/A   Clear
8:00 PM 68.0 °F 46.4 °F 46% 29.98 in - North 5.8 mph - N/A   Clear
9:00 PM 64.4 °F 46.4 °F 52% 29.95 in - North 3.5 mph - N/A   Clear
10:00 PM 64.4 °F 48.2 °F 56% 29.95 in - North 8.1 mph - N/A   Clear
11:00 PM 66.2 °F 51.8 °F 60% 29.95 in - North 9.2 mph - N/A   Clear